リニア彗星

209P/LINEAR (2004)

English version
Home page
Updated on April 25, 2009

---------------------------------------------------------------------

・ プロフィール

符号 209P/2004 CB
発見日 2004年2月3日
発見光度 18.1等
発見者 Lincoln Laboratory Near-Earth Asteroid Research project

・ 軌道要素

                    Epoch = 2004 Mar. 16.0 TT
     T = 2004 Apr.  2.1633 TT         Peri. = 149.6559
     e = 0.689403                     Node  =  66.4876  2000.0
     q = 0.912180 AU                  Incl. =  19.1473
       a =  2.936863 AU    n = 0.1958297    P =   5.03 years

・ 星図

・ 光度変化

        m1 = 18.0 + 5 logΔ + 2.0 log r

---------------------------------------------------------------------

軌道要素は、IAUC 9002に掲載されたものです。
星図は StellaNavigator Ver.2.0 for Windows (アストロアーツ 編著 / アスキー出版局刊) で作成したものです。
光度グラフはComet for Windowsで作成したものです。

---------------------------------------------------------------------

Copyright(C) Seiichi Yoshida (comet@aerith.net). All rights reserved.